Regional Weather Roundup
Issued by NWS

Home | Current Version | Previous Version | Graphics & Text | Print | Product List | Glossary On
Versions: 1 2 3 4 5 6 7 8 9 10 11 12 13 14 15 16 17 18 19 20 21 22 23 24 25 26 27 28 29 30 31 32 33 34 35 36 37 38 39 40 41 42 43 44 45 46 47 48 49 50
000
ASUS43 KBIS 190210
RWRND

NORTH DAKOTA REGIONAL WEATHER ROUNDUP
NATIONAL WEATHER SERVICE BISMARCK ND
800 PM CST SAT FEB 18 2017

NOTE: "FAIR" INDICATES FEW OR NO CLOUDS BELOW 12,000 FEET WITH NO
SIGNIFICANT WEATHER AND/OR OBSTRUCTIONS TO VISIBILITY.


NDZ001>003-009>011-017-190300-
NORTHWEST NORTH DAKOTA

CITY           SKY/WX    TMP DP  RH WIND       PRES   REMARKS
WILLISTON      FAIR      35  31  85 NE8       29.68R
MINOT          CLOUDY    34  32  92 N5        29.73S
$$

NDZ018>021-031>035-040>046-190300-
SOUTHWEST NORTH DAKOTA

CITY           SKY/WX    TMP DP  RH WIND       PRES   REMARKS
BISMARCK       CLOUDY    37  33  85 E9        29.69S
DICKINSON      FAIR      32  29  88 NE9       29.60F
GARRISON         N/A     35  31  85 E12       29.68F
HETTINGER ARPT CLOUDY    37  31  78 NE9       29.61R
$$

NDZ004>008-012>016-024-026-027-054-190300-
NORTHEAST NORTH DAKOTA

CITY           SKY/WX    TMP DP  RH WIND       PRES   REMARKS
GRAND FORKS    MOCLDY    35  30  82 CALM      29.80R
GRND FRKS AFB  CLOUDY    34  31  90 CALM      29.81R
DEVILS LAKE    CLOUDY    33  32  96 NE7       29.77F
$$

NDZ022-023-025-028>030-036>039-047>053-190300-
SOUTHEAST NORTH DAKOTA

CITY           SKY/WX    TMP DP  RH WIND       PRES   REMARKS
FARGO          MOCLDY    38  37  97 NE3       29.79R
JAMESTOWN      FAIR      34  33  96 E5        29.74F
$$





USA.gov is the U.S. government's official web portal to all federal, state and local government web resources and services.